User: anonymous   Login
Location: Unspecified
(0.0000°N, 0.0000°E)
Time: 14:00:30
(UTC+00:00)
Language:

USA 200 - Orbit

View from above orbital plane
View from above orbital plane
View from above satellite
View from above satellite

Ground track
Ground track

The orbit data is extracted from the following two-line orbital elements,

1 32706U 08010A   20355.39449673 0.00000000  00000-0  00000-0 0    00
2 32706  63.2143 195.6946 6711491 270.6554  18.7790  2.00603399    01
Epoch (UTC): 20 December 2020 09:28:04
Eccentricity: 0.6711491
inclination: 63.2143°
perigee height: 2355 km
apogee height: 38002 km
right ascension of ascending node: 195.6946°
argument of perigee: 270.6554°
revolutions per day: 2.00603399
mean anomaly at epoch: 18.7790°
orbit number at epoch: 0

The dashed part of the orbit path shows where the satellite is in the earth's shadow,  

DLR